Weather History for KLDJ - June, 2014

Change the Weather History Date:

Wednesday, June 18, 2014

  Actual Average (KEWR) Record (KEWR)
Temperature  
Mean Temperature 86 °F 73 °F  
Max Temperature 92 °F 82 °F 97 °F (1993)
Min Temperature 80 °F 64 °F 49 °F (1950)
Degree Days  
Heating Degree Days 0 0  
Month to date heating degree days 15  
Since 1 June heating degree days 15  
Since 1 July heating degree days 4870  
Cooling Degree Days 21 9  
Month to date cooling degree days 117  
Year to date cooling degree days 193  
Since 1 June cooling degree days 117  
Growing Degree Days 36 (Base 50)    
Moisture  
Dew Point 63 °F    
Average Humidity 48    
Maximum Humidity 67    
Minimum Humidity 31    
Precipitation  
Precipitation 0.00 in 0.14 in 1.45 in (2009)
Month to date precipitation 2.53  
Year to date precipitation 21.42  
Snow  
Snow 0.00 in 0.00 in 0.00 in (2002)
Month to date snowfall 0.0  
Since 1 July snowfall 28.5  
Snow Depth -    
Sea Level Pressure  
Sea Level Pressure 29.91 in    
Wind  
Wind Speed 9 mph (NW)    
Max Wind Speed 20 mph    
Max Gust Speed 25 mph    
Visibility 10 miles    
Events      
T = Trace of Precipitation, MM = Missing Value Source: NWS Daily Summary

Daily Weather History Graph

Daily Weather History Graph

Search for Another Location

Airport or City:

Trip Planner

Search our weather history database for the weather conditions in past years. The results will help you decide how hot, cold, wet, or windy it might be!

Date:

Astronomy

Jun. 18, 2014 Rise Set
Actual Time 5:25 AM EDT 8:30 PM EDT
Civil Twilight 4:52 AM EDT 9:03 PM EDT
Nautical Twilight 4:09 AM EDT 9:46 PM EDT
Astronomical Twilight 3:19 AM EDT 10:36 PM EDT
Moon No Moon Rise 11:47 AM EDT (6/18)
Length of Visible Light 16h 11m
Length of Day
15h 04m
Waning Gibbous, 63% of the Moon is Illuminated
Jun 18
Waning Gibbous
Jun 19
Last Quarter
Jun 27
New
Jul 5
First Quarter
Jul 12
Full

Hourly Weather History & Observations

Time (EDT) Temp. Heat Index Dew Point Humidity Pressure Visibility Wind Dir Wind Speed Gust Speed Precip Events Conditions
12:15 AM 83.7 °F 86.7 °F 68.0 °F 59% 29.90 in 10.0 mi West 5.8 mph - N/A   Clear
12:35 AM 83.3 °F 86.4 °F 68.0 °F 60% 29.89 in 10.0 mi WSW 6.9 mph - N/A   Clear
12:55 AM 83.1 °F 86.3 °F 68.4 °F 61% 29.89 in 10.0 mi WSW 6.9 mph - N/A   Clear
1:15 AM 82.8 °F 86.0 °F 68.5 °F 62% 29.89 in 10.0 mi West 10.4 mph - N/A   Clear
1:35 AM 82.8 °F 86.0 °F 68.7 °F 62% 29.89 in 10.0 mi West 8.1 mph - N/A   Clear
1:55 AM 82.6 °F 85.9 °F 68.9 °F 63% 29.88 in 10.0 mi West 6.9 mph - N/A   Clear
2:15 AM 82.4 °F 85.8 °F 69.1 °F 64% 29.88 in 10.0 mi West 8.1 mph - N/A   Clear
2:35 AM 82.4 °F 85.8 °F 69.1 °F 64% 29.87 in 10.0 mi West 8.1 mph 16.1 mph N/A   Clear
2:55 AM 82.0 °F 85.5 °F 69.3 °F 65% 29.87 in 10.0 mi West 10.4 mph - N/A   Clear
3:15 AM 82.0 °F 85.5 °F 69.4 °F 65% 29.86 in 10.0 mi West 9.2 mph - N/A   Clear
3:35 AM 81.9 °F 85.4 °F 69.6 °F 66% 29.86 in 10.0 mi West 9.2 mph - N/A   Clear
3:55 AM 81.5 °F 84.9 °F 69.8 °F 67% 29.85 in 10.0 mi West 6.9 mph - N/A   Clear
4:15 AM 81.5 °F 84.9 °F 69.6 °F 67% 29.84 in 10.0 mi West 8.1 mph - N/A   Clear
4:35 AM 81.5 °F 84.8 °F 69.3 °F 66% 29.84 in 10.0 mi West 8.1 mph - N/A   Clear
5:15 AM 81.5 °F 84.6 °F 68.9 °F 65% 29.84 in 10.0 mi West 8.1 mph - N/A   Clear
5:35 AM 81.0 °F 83.9 °F 68.5 °F 66% 29.84 in 10.0 mi West 6.9 mph - N/A   Clear
5:55 AM 81.1 °F 83.4 °F 66.7 °F 61% 29.84 in 10.0 mi WNW 9.2 mph - N/A   Clear
6:35 AM 81.7 °F 82.4 °F 61.2 °F 50% 29.86 in 10.0 mi WNW 10.4 mph - N/A   Clear
7:15 AM 80.6 °F 81.7 °F 62.1 °F 53% 29.86 in 10.0 mi WNW 13.8 mph 18.4 mph N/A   Clear
7:35 AM 81.1 °F 82.3 °F 62.8 °F 53% 29.87 in 10.0 mi NW 11.5 mph - N/A   Clear
7:55 AM 81.5 °F 82.7 °F 63.0 °F 53% 29.87 in 10.0 mi WNW 11.5 mph 18.4 mph N/A   Clear
8:15 AM 82.0 °F 83.4 °F 63.7 °F 54% 29.87 in 10.0 mi WNW 11.5 mph 17.3 mph N/A   Clear
8:35 AM 82.4 °F 83.7 °F 63.9 °F 53% 29.87 in 10.0 mi WNW 15.0 mph - N/A   Clear
8:55 AM 83.1 °F 84.4 °F 64.0 °F 52% 29.88 in 10.0 mi WNW 12.7 mph 19.6 mph N/A   Clear
9:15 AM 83.8 °F 85.1 °F 63.7 °F 51% 29.88 in 10.0 mi WNW 17.3 mph 23.0 mph N/A   Clear
9:35 AM 84.4 °F 85.4 °F 63.3 °F 49% 29.89 in 10.0 mi NW 15.0 mph 24.2 mph N/A   Clear
9:55 AM 84.7 °F 85.9 °F 63.9 °F 49% 29.89 in 10.0 mi WNW 17.3 mph 25.3 mph N/A   Clear
10:15 AM 85.6 °F 87.1 °F 64.4 °F 49% 29.89 in 10.0 mi NW 12.7 mph 23.0 mph N/A   Clear
10:35 AM 86.0 °F 87.3 °F 64.4 °F 48% 29.89 in 10.0 mi NW 19.6 mph 24.2 mph N/A   Clear
10:55 AM 86.4 °F 87.6 °F 64.0 °F 47% 29.90 in 1.8 mi NW 15.0 mph 20.7 mph N/A   Haze
11:15 AM 86.9 °F 88.1 °F 63.7 °F 46% 29.90 in 10.0 mi NW 16.1 mph 23.0 mph N/A   Clear
11:35 AM 87.3 °F 88.6 °F 64.4 °F 46% 29.90 in 10.0 mi NW 11.5 mph 20.7 mph N/A   Clear
11:55 AM 87.8 °F 89.4 °F 64.6 °F 46% 29.91 in 10.0 mi WNW 11.5 mph 21.9 mph N/A   Clear
12:15 PM 88.7 °F 90.4 °F 64.9 °F 45% 29.91 in 10.0 mi NW 11.5 mph 21.9 mph N/A   Clear
12:35 PM 89.1 °F 90.6 °F 64.2 °F 44% 29.92 in 10.0 mi NNW 12.7 mph 21.9 mph N/A   Clear
12:55 PM 89.8 °F 91.4 °F 64.4 °F 43% 29.92 in 10.0 mi NW 12.7 mph 19.6 mph N/A   Clear
1:15 PM 90.5 °F 91.1 °F 62.4 °F 39% 29.93 in 10.0 mi NNW 12.7 mph 23.0 mph N/A   Clear
1:35 PM 90.9 °F 91.3 °F 61.7 °F 38% 29.93 in 10.0 mi NW 13.8 mph 24.2 mph N/A   Clear
1:55 PM 91.2 °F 91.4 °F 61.7 °F 37% 29.94 in 10.0 mi NNW 15.0 mph 25.3 mph N/A   Clear
2:15 PM 91.4 °F 91.7 °F 62.1 °F 37% 29.93 in 10.0 mi NW 17.3 mph 20.7 mph N/A   Clear
2:35 PM 91.6 °F 91.6 °F 61.0 °F 36% 29.93 in 10.0 mi NNW 16.1 mph 20.7 mph N/A   Clear
2:55 PM 92.5 °F 92.6 °F 60.8 °F 35% 29.92 in 10.0 mi NNW 11.5 mph 17.3 mph N/A   Clear
3:15 PM 92.3 °F 92.3 °F 61.0 °F 35% 29.92 in 10.0 mi North 15.0 mph 19.6 mph N/A   Clear
4:15 PM 92.3 °F 91.0 °F 57.9 °F 31% 29.92 in 10.0 mi North 9.2 mph - N/A   Clear
5:15 PM 90.9 °F 89.4 °F 57.0 °F 32% 29.93 in 10.0 mi NNW 9.2 mph 16.1 mph N/A   Clear
5:55 PM 91.6 °F 90.4 °F 57.9 °F 32% 29.93 in 10.0 mi NW 11.5 mph - N/A   Clear
6:15 PM 90.9 °F 89.4 °F 57.2 °F 32% 29.93 in 10.0 mi WNW 9.2 mph - N/A   Clear
6:35 PM 91.0 °F 89.4 °F 56.5 °F 31% 29.93 in 10.0 mi NNW 8.1 mph - N/A   Clear
6:55 PM 90.7 °F 89.5 °F 57.9 °F 33% 29.93 in 10.0 mi NNW 6.9 mph - N/A   Clear
7:15 PM 89.8 °F 88.6 °F 57.7 °F 34% 29.93 in 10.0 mi NNW 4.6 mph - N/A   Clear
7:35 PM 89.6 °F 88.4 °F 57.7 °F 34% 29.94 in 10.0 mi NW 8.1 mph - N/A   Clear
7:55 PM 88.7 °F 87.8 °F 58.3 °F 36% 29.95 in 10.0 mi NW 6.9 mph - N/A   Clear
8:15 PM 88.7 °F 87.8 °F 58.3 °F 36% 29.95 in 10.0 mi NNW 6.9 mph - N/A   Clear
8:35 PM 88.2 °F 87.1 °F 58.1 °F 36% 29.95 in 10.0 mi NNE 5.8 mph - N/A   Clear
8:55 PM 87.3 °F 86.3 °F 57.9 °F 37% 29.95 in 10.0 mi NNE 4.6 mph - N/A   Clear
9:15 PM 86.7 °F 85.6 °F 57.7 °F 37% 29.96 in 7.0 mi North 4.6 mph - N/A   Clear
9:35 PM 86.2 °F 85.2 °F 57.7 °F 38% 29.96 in 10.0 mi North 3.5 mph - N/A   Clear
9:55 PM 85.8 °F 85.0 °F 57.9 °F 39% 29.97 in 10.0 mi NNE 3.5 mph - N/A   Clear
10:15 PM 85.5 °F 84.8 °F 58.6 °F 40% 29.97 in 10.0 mi NNE 3.5 mph - N/A   Clear
10:35 PM 84.9 °F 84.4 °F 59.0 °F 41% 29.97 in 10.0 mi Calm Calm - N/A   Clear
10:55 PM 84.6 °F 84.2 °F 59.4 °F 42% 29.98 in 10.0 mi Calm Calm - N/A   Clear
11:15 PM 84.2 °F 84.0 °F 59.7 °F 43% 29.98 in 10.0 mi NNE 3.5 mph - N/A   Clear
11:35 PM 83.3 °F 83.5 °F 60.3 °F 46% 29.97 in 10.0 mi Calm Calm - N/A   Clear
11:55 PM 83.1 °F 83.5 °F 60.8 °F 47% 29.98 in 10.0 mi North 3.5 mph - N/A   Clear